Time,TemperatureF,DewpointF,PressureIn,WindDirection,WindDirectionDegrees,WindSpeedMPH,WindSpeedGustMPH,Humidity,HourlyPrecipIn,Conditions,Clouds,dailyrainin,SoftwareType,DateUTC
2013-05-13 00:02:00,50.0,21.0,-100.00,ESE,105,11.0,14.0,33,0.00,,,0.00,,2013-05-13 05:02:00,
2013-05-13 00:12:00,50.0,21.0,-100.00,East,100,10.0,15.0,32,0.00,,,0.00,,2013-05-13 05:12:00,
2013-05-13 00:21:00,50.0,21.0,-100.00,ESE,115,10.0,14.0,32,0.00,,,0.00,,2013-05-13 05:21:00,
2013-05-13 00:32:00,50.0,21.0,-100.00,ESE,110,11.0,13.0,32,0.00,,,0.00,,2013-05-13 05:32:00,
2013-05-13 00:42:00,50.0,21.0,-100.00,ESE,105,9.0,14.0,32,0.00,,,0.00,,2013-05-13 05:42:00,
2013-05-13 00:51:00,49.0,21.0,-100.00,ESE,105,9.0,14.0,32,0.00,,,0.00,,2013-05-13 05:51:00,
2013-05-13 01:01:00,49.0,21.0,-100.00,ESE,120,11.0,14.0,32,0.00,,,0.00,,2013-05-13 06:01:00,
2013-05-13 01:11:00,49.0,21.0,-100.00,ESE,120,12.0,17.0,32,0.00,,,0.00,,2013-05-13 06:11:00,
2013-05-13 01:21:00,49.0,21.0,-100.00,SE,125,12.0,15.0,32,0.00,,,0.00,,2013-05-13 06:21:00,
2013-05-13 01:31:00,49.0,21.0,-100.00,ESE,115,11.0,14.0,32,0.00,,,0.00,,2013-05-13 06:31:00,
2013-05-13 01:42:00,49.0,21.0,-100.00,ESE,120,11.0,16.0,32,0.00,,,0.00,,2013-05-13 06:42:00,
2013-05-13 01:52:00,49.0,21.0,-100.00,ESE,115,12.0,16.0,32,0.00,,,0.00,,2013-05-13 06:52:00,
2013-05-13 02:01:00,48.0,21.0,-100.00,ESE,120,12.0,16.0,32,0.00,,,0.00,,2013-05-13 07:01:00,
2013-05-13 02:11:00,48.0,21.0,-100.00,SE,125,14.0,17.0,32,0.00,,,0.00,,2013-05-13 07:11:00,
2013-05-13 02:22:00,49.0,21.0,-100.00,SE,125,14.0,17.0,32,0.00,,,0.00,,2013-05-13 07:22:00,
2013-05-13 02:31:00,48.0,19.0,-100.00,SE,130,14.0,17.0,32,0.00,,,0.00,,2013-05-13 07:31:00,
2013-05-13 02:41:00,48.0,19.0,-100.00,ESE,120,13.0,17.0,32,0.00,,,0.00,,2013-05-13 07:41:00,
2013-05-13 02:52:00,48.0,19.0,-100.00,ESE,120,14.0,18.0,32,0.00,,,0.00,,2013-05-13 07:52:00,
2013-05-13 03:02:00,48.0,21.0,-100.00,SE,125,13.0,19.0,32,0.00,,,0.00,,2013-05-13 08:02:00,
2013-05-13 03:11:00,48.0,19.0,-100.00,SE,135,13.0,17.0,32,0.00,,,0.00,,2013-05-13 08:11:00,
2013-05-13 03:21:00,48.0,21.0,-100.00,SE,140,12.0,19.0,32,0.00,,,0.00,,2013-05-13 08:21:00,
2013-05-13 03:31:00,48.0,19.0,-100.00,SE,140,11.0,17.0,32,0.00,,,0.00,,2013-05-13 08:31:00,
2013-05-13 03:42:00,48.0,19.0,-100.00,SE,140,14.0,20.0,33,0.00,,,0.00,,2013-05-13 08:42:00,
2013-05-13 03:51:00,47.0,19.0,-100.00,SSE,150,16.0,20.0,34,0.00,,,0.00,,2013-05-13 08:51:00,
2013-05-13 04:01:00,47.0,19.0,-100.00,SSE,150,15.0,19.0,34,0.00,,,0.00,,2013-05-13 09:01:00,
2013-05-13 04:11:00,46.0,19.0,-100.00,SSE,150,15.0,18.0,34,0.00,,,0.00,,2013-05-13 09:11:00,
2013-05-13 04:21:00,46.0,19.0,-100.00,SSE,150,14.0,18.0,35,0.00,,,0.00,,2013-05-13 09:21:00,
2013-05-13 04:33:00,46.0,19.0,-100.00,SSE,155,13.0,17.0,35,0.00,,,0.00,,2013-05-13 09:33:00,
2013-05-13 04:42:00,46.0,19.0,-100.00,SSE,150,12.0,18.0,35,0.00,,,0.00,,2013-05-13 09:42:00,
2013-05-13 04:52:00,46.0,19.0,-100.00,SSE,150,14.0,18.0,35,0.00,,,0.00,,2013-05-13 09:52:00,
2013-05-13 05:03:00,46.0,19.0,-100.00,SSE,155,14.0,20.0,35,0.00,,,0.00,,2013-05-13 10:03:00,
2013-05-13 05:12:00,46.0,19.0,-100.00,SSE,155,14.0,19.0,35,0.00,,,0.00,,2013-05-13 10:12:00,
2013-05-13 05:22:00,46.0,19.0,-100.00,SSE,155,15.0,18.0,35,0.00,,,0.00,,2013-05-13 10:22:00,
2013-05-13 05:32:00,46.0,19.0,-100.00,SE,145,14.0,19.0,35,0.00,,,0.00,,2013-05-13 10:32:00,
2013-05-13 05:42:00,46.0,19.0,-100.00,SSE,150,14.0,19.0,35,0.00,,,0.00,,2013-05-13 10:42:00,
2013-05-13 05:52:00,46.0,19.0,-100.00,SSE,150,16.0,20.0,35,0.00,,,0.00,,2013-05-13 10:52:00,
2013-05-13 06:02:00,46.0,21.0,-100.00,SSE,150,12.0,20.0,35,0.00,,,0.00,,2013-05-13 11:02:00,
2013-05-13 06:12:00,46.0,21.0,-100.00,SSE,150,15.0,19.0,35,0.00,,,0.00,,2013-05-13 11:12:00,
2013-05-13 06:21:00,46.0,21.0,-100.00,SE,145,14.0,19.0,35,0.00,,,0.00,,2013-05-13 11:21:00,
2013-05-13 06:32:00,46.0,21.0,-100.00,SE,145,16.0,21.0,35,0.00,,,0.00,,2013-05-13 11:32:00,
2013-05-13 06:42:00,47.0,21.0,-100.00,SSE,155,16.0,21.0,35,0.00,,,0.00,,2013-05-13 11:42:00,
2013-05-13 06:51:00,47.0,21.0,-100.00,SSE,155,17.0,22.0,35,0.00,,,0.00,,2013-05-13 11:51:00,
2013-05-13 07:01:00,48.0,21.0,-100.00,SSE,160,18.0,24.0,35,0.00,,,0.00,,2013-05-13 12:01:00,
2013-05-13 07:11:00,48.0,21.0,-100.00,SSE,160,18.0,23.0,34,0.00,,,0.00,,2013-05-13 12:11:00,
2013-05-13 07:21:00,49.0,21.0,-100.00,SSE,150,16.0,21.0,34,0.00,,,0.00,,2013-05-13 12:21:00,
2013-05-13 07:32:00,49.0,21.0,-100.00,SSE,155,15.0,22.0,34,0.00,,,0.00,,2013-05-13 12:32:00,
2013-05-13 07:42:00,49.0,21.0,-100.00,SSE,150,16.0,21.0,34,0.00,,,0.00,,2013-05-13 12:42:00,
2013-05-13 07:51:00,49.0,23.0,-100.00,SE,140,15.0,22.0,34,0.00,,,0.00,,2013-05-13 12:51:00,
2013-05-13 08:01:00,50.0,23.0,-100.00,SE,140,14.0,22.0,34,0.00,,,0.00,,2013-05-13 13:01:00,
2013-05-13 08:11:00,50.0,23.0,-100.00,SSE,150,16.0,21.0,34,0.00,,,0.00,,2013-05-13 13:11:00,
2013-05-13 08:21:00,50.0,23.0,-100.00,SE,145,18.0,22.0,34,0.00,,,0.00,,2013-05-13 13:21:00,
2013-05-13 08:31:00,50.0,23.0,-100.00,SE,145,15.0,22.0,34,0.00,,,0.00,,2013-05-13 13:31:00,
2013-05-13 08:41:00,51.0,25.0,-100.00,SSE,150,16.0,21.0,34,0.00,,,0.00,,2013-05-13 13:41:00,
2013-05-13 08:52:00,51.0,25.0,-100.00,SSE,150,16.0,21.0,34,0.00,,,0.00,,2013-05-13 13:52:00,
2013-05-13 09:02:00,52.0,25.0,-100.00,SE,145,17.0,26.0,34,0.00,,,0.00,,2013-05-13 14:02:00,
2013-05-13 09:11:00,52.0,25.0,-100.00,SE,135,15.0,24.0,34,0.00,,,0.00,,2013-05-13 14:11:00,
2013-05-13 09:22:00,53.0,27.0,-100.00,SE,140,17.0,24.0,34,0.00,,,0.00,,2013-05-13 14:22:00,
2013-05-13 09:31:00,54.0,27.0,-100.00,SSE,150,17.0,23.0,33,0.00,,,0.00,,2013-05-13 14:31:00,
2013-05-13 09:41:00,55.0,27.0,-100.00,SE,145,18.0,24.0,33,0.00,,,0.00,,2013-05-13 14:41:00,
2013-05-13 09:51:00,56.0,27.0,-100.00,SE,145,19.0,29.0,32,0.00,,,0.00,,2013-05-13 14:51:00,
2013-05-13 10:01:00,57.0,28.0,-100.00,SSE,150,17.0,26.0,32,0.00,,,0.00,,2013-05-13 15:01:00,
2013-05-13 10:11:00,56.0,28.0,-100.00,SSE,165,20.0,28.0,32,0.00,,,0.00,,2013-05-13 15:11:00,
2013-05-13 10:21:00,56.0,27.0,-100.00,SSE,165,20.0,27.0,33,0.00,,,0.00,,2013-05-13 15:21:00,
2013-05-13 10:31:00,56.0,28.0,-100.00,SSE,160,22.0,29.0,34,0.00,,,0.00,,2013-05-13 15:31:00,
2013-05-13 10:42:00,57.0,28.0,-100.00,SSE,165,21.0,27.0,34,0.00,,,0.00,,2013-05-13 15:42:00,
2013-05-13 10:52:00,58.0,30.0,-100.00,South,170,22.0,30.0,34,0.00,,,0.00,,2013-05-13 15:52:00,
2013-05-13 11:03:00,58.0,30.0,-100.00,South,170,24.0,30.0,34,0.00,,,0.00,,2013-05-13 16:03:00,
2013-05-13 11:11:00,58.0,30.0,-100.00,South,170,24.0,30.0,34,0.00,,,0.00,,2013-05-13 16:11:00,
2013-05-13 11:21:00,60.0,32.0,-100.00,SSE,160,22.0,32.0,34,0.00,,,0.00,,2013-05-13 16:21:00,
2013-05-13 11:33:00,62.0,34.0,-100.00,SSE,160,19.0,30.0,34,0.00,,,0.00,,2013-05-13 16:33:00,
2013-05-13 11:42:00,63.0,34.0,-100.00,SSE,160,19.0,30.0,34,0.00,,,0.00,,2013-05-13 16:42:00,
2013-05-13 11:52:00,63.0,36.0,-100.00,SSE,150,23.0,30.0,34,0.00,,,0.00,,2013-05-13 16:52:00,
2013-05-13 12:02:00,64.0,36.0,-100.00,SSE,165,22.0,31.0,34,0.00,,,0.00,,2013-05-13 17:02:00,
2013-05-13 12:12:00,64.0,36.0,-100.00,SSE,150,23.0,32.0,34,0.00,,,0.00,,2013-05-13 17:12:00,
2013-05-13 12:21:00,65.0,37.0,-100.00,South,170,24.0,30.0,34,0.00,,,0.00,,2013-05-13 17:21:00,
2013-05-13 12:32:00,66.0,37.0,-100.00,SSE,160,22.0,32.0,34,0.00,,,0.00,,2013-05-13 17:32:00,
2013-05-13 12:42:00,67.0,39.0,-100.00,SSE,165,25.0,31.0,34,0.00,,,0.00,,2013-05-13 17:42:00,
2013-05-13 12:54:00,68.0,39.0,-100.00,SSE,160,26.0,32.0,34,0.00,,,0.00,,2013-05-13 17:54:00,
2013-05-13 13:03:00,69.0,41.0,-100.00,SSE,155,27.0,34.0,34,0.00,,,0.00,,2013-05-13 18:03:00,
2013-05-13 13:12:00,70.0,41.0,-100.00,SSE,155,22.0,32.0,34,0.00,,,0.00,,2013-05-13 18:12:00,
2013-05-13 13:23:00,71.0,43.0,-100.00,SSE,165,26.0,35.0,35,0.00,,,0.00,,2013-05-13 18:23:00,
2013-05-13 13:32:00,71.0,43.0,-100.00,SSE,160,26.0,32.0,36,0.00,,,0.00,,2013-05-13 18:32:00,
2013-05-13 13:42:00,72.0,45.0,-100.00,South,180,28.0,34.0,36,0.00,,,0.00,,2013-05-13 18:42:00,
2013-05-13 13:51:00,72.0,43.0,-100.00,South,175,27.0,35.0,36,0.00,,,0.00,,2013-05-13 18:51:00,
2013-05-13 14:01:00,72.0,45.0,-100.00,South,185,26.0,34.0,36,0.00,,,0.00,,2013-05-13 19:01:00,
2013-05-13 14:11:00,73.0,45.0,-100.00,South,180,25.0,33.0,36,0.00,,,0.00,,2013-05-13 19:11:00,
2013-05-13 14:21:00,74.0,45.0,-100.00,South,185,19.0,32.0,35,0.00,,,0.00,,2013-05-13 19:21:00,
2013-05-13 14:32:00,75.0,45.0,-100.00,SSW,195,27.0,35.0,34,0.00,,,0.00,,2013-05-13 19:32:00,
2013-05-13 14:43:00,77.0,46.0,-100.00,South,185,20.0,33.0,34,0.00,,,0.00,,2013-05-13 19:43:00,
2013-05-13 14:53:00,76.0,46.0,-100.00,South,190,24.0,30.0,33,0.00,,,0.00,,2013-05-13 19:53:00,
2013-05-13 15:01:00,77.0,46.0,-100.00,SSW,195,22.0,32.0,33,0.00,,,0.00,,2013-05-13 20:01:00,
2013-05-13 15:11:00,76.0,46.0,-100.00,South,185,21.0,30.0,33,0.00,,,0.00,,2013-05-13 20:11:00,
2013-05-13 15:23:00,78.0,46.0,-100.00,SSW,200,19.0,34.0,32,0.00,,,0.00,,2013-05-13 20:23:00,
2013-05-13 15:33:00,79.0,46.0,-100.00,South,175,23.0,29.0,31,0.00,,,0.00,,2013-05-13 20:33:00,
2013-05-13 15:44:00,80.0,46.0,-100.00,SSW,195,20.0,26.0,31,0.00,,,0.00,,2013-05-13 20:44:00,
2013-05-13 15:53:00,80.0,46.0,-100.00,SSW,200,16.0,27.0,30,0.00,,,0.00,,2013-05-13 20:53:00,
2013-05-13 16:03:00,80.0,46.0,-100.00,South,190,16.0,27.0,30,0.00,,,0.00,,2013-05-13 21:03:00,
2013-05-13 16:14:00,80.0,46.0,-100.00,SSW,205,15.0,23.0,30,0.00,,,0.00,,2013-05-13 21:14:00,
2013-05-13 16:23:00,81.0,48.0,-100.00,SW,230,17.0,26.0,30,0.00,,,0.00,,2013-05-13 21:23:00,
2013-05-13 16:33:00,82.0,48.0,-100.00,SW,215,14.0,22.0,29,0.00,,,0.00,,2013-05-13 21:33:00,
2013-05-13 16:43:00,81.0,46.0,-100.00,SW,225,16.0,23.0,29,0.00,,,0.00,,2013-05-13 21:43:00,
2013-05-13 16:53:00,82.0,48.0,-100.00,SW,230,16.0,23.0,29,0.00,,,0.00,,2013-05-13 21:53:00,
2013-05-13 17:02:00,83.0,48.0,-100.00,WSW,255,14.0,22.0,29,0.00,,,0.00,,2013-05-13 22:02:00,
2013-05-13 17:12:00,83.0,48.0,-100.00,SW,230,16.0,21.0,29,0.00,,,0.00,,2013-05-13 22:12:00,
2013-05-13 17:23:00,83.0,48.0,-100.00,SW,225,13.0,20.0,29,0.00,,,0.00,,2013-05-13 22:23:00,
2013-05-13 17:32:00,84.0,48.0,-100.00,WSW,240,13.0,21.0,28,0.00,,,0.00,,2013-05-13 22:32:00,
2013-05-13 17:42:00,84.0,48.0,-100.00,WSW,240,12.0,19.0,28,0.00,,,0.00,,2013-05-13 22:42:00,
2013-05-13 17:52:00,84.0,48.0,-100.00,WSW,240,11.0,19.0,28,0.00,,,0.00,,2013-05-13 22:52:00,
2013-05-13 18:02:00,84.0,48.0,-100.00,WSW,250,11.0,15.0,28,0.00,,,0.00,,2013-05-13 23:02:00,
2013-05-13 18:12:00,85.0,48.0,-100.00,SW,230,11.0,15.0,28,0.00,,,0.00,,2013-05-13 23:12:00,
2013-05-13 18:23:00,85.0,48.0,-100.00,WSW,245,11.0,14.0,27,0.00,,,0.00,,2013-05-13 23:23:00,
2013-05-13 18:33:00,85.0,48.0,-100.00,WSW,240,9.0,16.0,27,0.00,,,0.00,,2013-05-13 23:33:00,
2013-05-13 18:42:00,84.0,48.0,-100.00,SW,220,8.0,14.0,27,0.00,,,0.00,,2013-05-13 23:42:00,
2013-05-13 18:53:00,84.0,48.0,-100.00,SSW,205,7.0,11.0,27,0.00,,,0.00,,2013-05-13 23:53:00,
2013-05-13 19:02:00,84.0,48.0,-100.00,SW,220,10.0,13.0,27,0.00,,,0.00,,2013-05-14 00:02:00,
2013-05-13 19:12:00,85.0,48.0,-100.00,SW,220,9.0,14.0,27,0.00,,,0.00,,2013-05-14 00:12:00,
2013-05-13 19:22:00,85.0,48.0,-100.00,SW,215,10.0,14.0,27,0.00,,,0.00,,2013-05-14 00:22:00,
2013-05-13 19:31:00,85.0,48.0,-100.00,SW,225,8.0,16.0,28,0.00,,,0.00,,2013-05-14 00:31:00,
2013-05-13 19:41:00,85.0,48.0,-100.00,SW,225,9.0,18.0,27,0.00,,,0.00,,2013-05-14 00:41:00,
2013-05-13 19:51:00,85.0,48.0,-100.00,West,265,11.0,18.0,27,0.00,,,0.00,,2013-05-14 00:51:00,
2013-05-13 20:01:00,85.0,46.0,-100.00,West,280,14.0,18.0,26,0.00,,,0.00,,2013-05-14 01:01:00,
2013-05-13 20:11:00,85.0,45.0,-100.00,WNW,285,16.0,22.0,25,0.00,,,0.00,,2013-05-14 01:11:00,
2013-05-13 20:21:00,83.0,45.0,-100.00,WNW,285,13.0,19.0,25,0.00,,,0.00,,2013-05-14 01:21:00,
2013-05-13 20:32:00,82.0,45.0,-100.00,West,280,12.0,17.0,25,0.00,,,0.00,,2013-05-14 01:32:00,
2013-05-13 20:43:00,81.0,43.0,-100.00,WNW,285,11.0,15.0,26,0.00,,,0.00,,2013-05-14 01:43:00,
2013-05-13 20:52:00,79.0,43.0,-100.00,WNW,285,11.0,14.0,27,0.00,,,0.00,,2013-05-14 01:52:00,
2013-05-13 21:02:00,78.0,43.0,-100.00,WNW,285,11.0,14.0,27,0.00,,,0.00,,2013-05-14 02:02:00,
2013-05-13 21:11:00,77.0,43.0,-100.00,West,280,10.0,14.0,28,0.00,,,0.00,,2013-05-14 02:11:00,
2013-05-13 21:22:00,75.0,41.0,-100.00,West,280,10.0,11.0,29,0.00,,,0.00,,2013-05-14 02:22:00,
2013-05-13 21:32:00,75.0,41.0,-100.00,West,280,10.0,13.0,29,0.00,,,0.00,,2013-05-14 02:32:00,
2013-05-13 21:42:00,74.0,41.0,-100.00,WNW,285,9.0,12.0,30,0.00,,,0.00,,2013-05-14 02:42:00,
2013-05-13 21:51:00,73.0,41.0,-100.00,WNW,285,7.0,11.0,30,0.00,,,0.00,,2013-05-14 02:51:00,
2013-05-13 22:01:00,73.0,41.0,-100.00,WNW,285,7.0,8.0,30,0.00,,,0.00,,2013-05-14 03:01:00,
2013-05-13 22:11:00,72.0,41.0,-100.00,West,280,7.0,7.0,31,0.00,,,0.00,,2013-05-14 03:11:00,
2013-05-13 22:21:00,72.0,41.0,-100.00,WNW,285,7.0,8.0,31,0.00,,,0.00,,2013-05-14 03:21:00,
2013-05-13 22:33:00,71.0,39.0,-100.00,WNW,285,7.0,7.0,32,0.00,,,0.00,,2013-05-14 03:33:00,
2013-05-13 22:42:00,70.0,39.0,-100.00,WNW,290,7.0,9.0,32,0.00,,,0.00,,2013-05-14 03:42:00,
2013-05-13 22:52:00,70.0,39.0,-100.00,WNW,295,7.0,9.0,33,0.00,,,0.00,,2013-05-14 03:52:00,
2013-05-13 23:02:00,69.0,39.0,-100.00,WNW,295,7.0,9.0,33,0.00,,,0.00,,2013-05-14 04:02:00,
2013-05-13 23:13:00,69.0,39.0,-100.00,WNW,295,6.0,9.0,33,0.00,,,0.00,,2013-05-14 04:13:00,
2013-05-13 23:22:00,69.0,39.0,-100.00,WNW,295,6.0,7.0,33,0.00,,,0.00,,2013-05-14 04:22:00,
2013-05-13 23:32:00,69.0,39.0,-100.00,WNW,300,6.0,8.0,33,0.00,,,0.00,,2013-05-14 04:32:00,
2013-05-13 23:43:00,68.0,39.0,-100.00,NW,305,6.0,7.0,33,0.00,,,0.00,,2013-05-14 04:43:00,
2013-05-13 23:52:00,68.0,39.0,-100.00,NW,310,6.0,7.0,33,0.00,,,0.00,,2013-05-14 04:52:00,